Location: Glen Waverley
(37.8830°S, 145.1670°E)
Time: 22:25:15
(UTC+10:00)

ISS - Visible Passes

Search period start: 12 April 2021 00:00
Search period end: 22 April 2021 00:00
Orbit: 418 x 422 km, 51.6° (Epoch: 12 April)

Date Brightness Start Highest point End Pass type
(mag) Time Alt. Az. Time Alt. Az. Time Alt. Az.
12 Apr -0.3 04:03:16 12° ESE 04:03:16 12° ESE 04:03:36 10° E visible
12 Apr -3.4 05:36:17 26° WSW 05:37:48 46° NW 05:41:05 10° NNE visible
13 Apr -2.7 04:51:36 41° NE 04:51:36 41° NE 04:53:56 10° NE visible
14 Apr -1.7 05:40:04 14° NW 05:40:04 14° NW 05:41:37 10° NNW visible
16 Apr -1.4 19:08:39 10° NNE 19:09:14 12° NNE 19:09:14 12° NNE visible
17 Apr -1.4 19:56:24 10° NW 19:57:35 20° NW 19:57:35 20° NW visible
18 Apr -3.5 19:09:14 10° NNW 19:12:31 48° NE 19:12:47 46° ENE visible
19 Apr -2.5 18:22:22 10° N 18:25:16 26° NE 18:27:51 12° ESE visible
19 Apr -1.4 19:58:55 10° W 20:00:51 25° WSW 20:00:51 25° WSW visible
20 Apr -3.0 19:11:16 10° WNW 19:14:35 51° SW 19:15:47 33° SSE visible
21 Apr -3.7 18:23:49 10° NW 18:27:13 90° SW 18:30:36 10° SE visible
21 Apr -0.8 20:02:13 10° WSW 20:03:35 15° SW 20:03:35 15° SW visible
